Regional Weather Roundup
Issued by NWS Albany, NY

Home | Current Version | Previous Version | Text Only | Print | Product List | Glossary On
Versions: 1 2 3 4 5 6 7 8 9 10 11 12 13 14 15 16 17 18 19 20 21 22 23 24 25 26 27 28 29 30 31 32 33 34 35 36 37 38 39 40 41 42 43 44 45 46 47 48 49 50
000
ASUS41 KALY 272110
RWRALY

NEW YORK STATE HOURLY WEATHER ROUNDUP
NATIONAL WEATHER SERVICE ALBANY NY
500 PM EDT FRI MAR 27 2015

NOTE: "FAIR" INDICATES FEW OR NO CLOUDS BELOW 12,000 FEET WITH NO
SIGNIFICANT WEATHER AND/OR NO OBSTRUCTIONS TO VISIBILITY.

NYZ032-033-038>043-046>054-057>066-NYZ062>081-272200-
EAST


CITY           SKY/WX    TMP DP  RH WIND       PRES   REMARKS
ALBANY         CLOUDY    45  27  49 W15       29.74R
GLENS FALLS    CLOUDY    43  29  57 CALM      29.72R
POUGHKEEPSIE   CLOUDY    44  28  53 N9        29.72S
NEWBURGH       CLOUDY    43  30  61 NW9       29.72F
MONTGOMERY     CLOUDY    44  26  49 NW8       29.72R
WHITE PLAINS   CLOUDY    44  32  62 N8        29.70S
ISLIP          CLOUDY    45  33  63 N9        29.69F
NEW YORK CITY  CLOUDY    45  31  58 NW6       29.72R
CENTRAL PARK   CLOUDY    45  29  53 CALM      29.74R
$$

NYZ005>009-017-018-044>046-055-056-272200-
CENTRAL


CITY           SKY/WX    TMP DP  RH WIND       PRES   REMARKS
FULTON         MIX PCPN  30  24  78 N13       29.85R WCI  20
SYRACUSE       PTSUNNY   35  24  64 NW17      29.82R WCI  25
ROME           CLOUDY    34  24  67 W14       29.81S WCI  25
ELMIRA         CLOUDY    37  25  61 N12       29.78S WCI  29
BINGHAMTON     CLOUDY    33  23  66 NW8       29.74R WCI  26
MONTICELLO     CLOUDY    36  25  64 NW9       29.73S WCI  29
$$

NYZ026>034-041>043-272200-
NORTH


CITY           SKY/WX    TMP DP  RH WIND       PRES   REMARKS
WATERTOWN      MIX PCPN  26  22  84 N12       29.87R FOG     WCI  16
FORT DRUM      NOT AVBL
MASSENA        LGT SNOW  26  23  88 W16       29.85R FOG     WCI  14
SARANAC LAKE   LGT SNOW  30  26  85 NW7       29.70R FOG     WCI  23
PLATTSBURGH    CLOUDY    33  29  85 N10       29.79R WCI  25
$$

NYZ001>004-010>016-019>021-272200-
WEST


CITY           SKY/WX    TMP DP  RH WIND       PRES   REMARKS
NIAGARA FALLS  CLOUDY    26  18  71 N12       29.90R WCI  16
BUFFALO        LGT SNOW  27  18  69 NW9       29.89R WCI  18
DUNKIRK        LGT SNOW  26  23  88 NW9       29.91R FOG     WCI  17
JAMESTOWN      CLOUDY    25  18  74 W14       29.82S WCI  13
WELLSVILLE     FLURRIES  29  21  72 NW13      29.76S WCI  19
ROCHESTER      FLURRIES  31  22  69 NW12      29.86S WCI  22
PENN YAN       LGT SNOW  32  25  75 NW9       29.81R WCI  24
$$

             KEY
       WCI = WIND CHILL INDEX
       VSB = VISIBILITY
       HX  = HEAT INDEX
$$



USA.gov is the U.S. government's official web portal to all federal, state and local government web resources and services.